Time,TemperatureF,DewpointF,PressureIn,WindDirection,WindDirectionDegrees,WindSpeedMPH,WindSpeedGustMPH,Humidity,HourlyPrecipIn,Conditions,Clouds,dailyrainin,SoftwareType,DateUTC
2015-05-06 00:21:00,51.0,45.0,-100.00,ENE,66,4.0,9.0,79,-99.99,,,-99.99,,2015-05-06 06:21:00,
2015-05-06 00:32:00,51.0,45.0,-100.00,ENE,66,4.0,9.0,79,-99.99,,,-99.99,,2015-05-06 06:32:00,
2015-05-06 00:42:00,51.0,45.0,-100.00,ENE,66,4.0,9.0,79,-99.99,,,-99.99,,2015-05-06 06:42:00,
2015-05-06 00:51:00,49.0,47.0,-100.00,North,11,5.0,16.0,92,-99.99,,,-99.99,,2015-05-06 06:51:00,
2015-05-06 01:21:00,49.0,47.0,-100.00,North,11,5.0,16.0,92,-99.99,,,-99.99,,2015-05-06 07:21:00,
2015-05-06 01:31:00,49.0,47.0,-100.00,North,11,5.0,16.0,92,-99.99,,,-99.99,,2015-05-06 07:31:00,
2015-05-06 01:41:00,49.0,47.0,-100.00,North,11,5.0,16.0,92,-99.99,,,-99.99,,2015-05-06 07:41:00,
2015-05-06 01:51:00,48.0,45.0,-100.00,SSE,161,5.0,7.0,90,-99.99,,,-99.99,,2015-05-06 07:51:00,
2015-05-06 02:21:00,48.0,45.0,-100.00,SSE,161,5.0,7.0,90,-99.99,,,-99.99,,2015-05-06 08:21:00,
2015-05-06 02:31:00,48.0,45.0,-100.00,SSE,161,5.0,7.0,90,-99.99,,,-99.99,,2015-05-06 08:31:00,
2015-05-06 02:41:00,48.0,45.0,-100.00,SSE,161,5.0,7.0,90,-99.99,,,-99.99,,2015-05-06 08:41:00,
2015-05-06 02:51:00,49.0,45.0,-100.00,SSW,207,8.0,13.0,86,-99.99,,,-99.99,,2015-05-06 08:51:00,
2015-05-06 03:21:00,49.0,45.0,-100.00,SSW,207,8.0,13.0,86,-99.99,,,-99.99,,2015-05-06 09:21:00,
2015-05-06 03:31:00,49.0,45.0,-100.00,SSW,207,8.0,13.0,86,-99.99,,,-99.99,,2015-05-06 09:31:00,
2015-05-06 03:41:00,49.0,45.0,-100.00,SSW,207,8.0,13.0,86,-99.99,,,-99.99,,2015-05-06 09:41:00,
2015-05-06 03:51:00,49.0,43.0,-100.00,SW,220,13.0,22.0,79,-99.99,,,-99.99,,2015-05-06 09:51:00,
2015-05-06 04:21:00,49.0,43.0,-100.00,SW,220,13.0,22.0,79,-99.99,,,-99.99,,2015-05-06 10:21:00,
2015-05-06 04:31:00,49.0,43.0,-100.00,SW,220,13.0,22.0,79,-99.99,,,-99.99,,2015-05-06 10:31:00,
2015-05-06 04:41:00,49.0,43.0,-100.00,SW,220,13.0,22.0,79,-99.99,,,-99.99,,2015-05-06 10:41:00,
2015-05-06 04:51:00,48.0,43.0,-100.00,North,-9999,0.0,16.0,82,-99.99,,,-99.99,,2015-05-06 10:51:00,
2015-05-06 05:21:00,48.0,43.0,-100.00,North,-9999,0.0,16.0,82,-99.99,,,-99.99,,2015-05-06 11:21:00,
2015-05-06 05:31:00,48.0,43.0,-100.00,North,-9999,0.0,16.0,82,-99.99,,,-99.99,,2015-05-06 11:31:00,
2015-05-06 05:42:00,48.0,43.0,-100.00,North,-9999,0.0,16.0,82,-99.99,,,-99.99,,2015-05-06 11:42:00,
2015-05-06 05:51:00,49.0,42.0,-100.00,NW,307,2.0,10.0,78,-99.99,,,-99.99,,2015-05-06 11:51:00,
2015-05-06 06:21:00,49.0,42.0,-100.00,NW,307,2.0,10.0,78,-99.99,,,-99.99,,2015-05-06 12:21:00,
2015-05-06 06:31:00,49.0,42.0,-100.00,NW,307,2.0,10.0,78,-99.99,,,-99.99,,2015-05-06 12:31:00,
2015-05-06 06:42:00,49.0,42.0,-100.00,NW,307,2.0,10.0,78,-99.99,,,-99.99,,2015-05-06 12:42:00,
2015-05-06 07:21:00,48.0,45.0,-100.00,North,-9999,0.0,3.0,90,-99.99,,,-99.99,,2015-05-06 13:21:00,
2015-05-06 07:31:00,48.0,45.0,-100.00,North,-9999,0.0,3.0,90,-99.99,,,-99.99,,2015-05-06 13:31:00,